Regional Weather Roundup
Issued by NWS

Home | Current Version | Previous Version | Graphics & Text | Print | Product List | Glossary On
Versions: 1 2 3 4 5 6 7 8 9 10 11 12 13 14 15 16 17 18 19 20 21 22 23 24 25 26 27 28 29 30 31 32 33 34 35 36 37 38 39 40 41 42 43 44 45 46 47 48 49 50
000
ASUS43 KLMK 290902
RWRKY
KENTUCKY REGIONAL WEATHER ROUNDUP
NATIONAL WEATHER SERVICE LOUISVILLE KY
500 AM EDT FRI MAY 29 2015

NOTE "FAIR" INDICATES FEW OR NO CLOUDS BELOW 12,000 FEET
WITH NO SIGNIFICANT WEATHER AND/OR OBSTRUCTIONS TO VISIBILITY.

KYZ001>023-026-027-061>063-070>075-291000-
WESTERN AND SOUTH CENTRAL KENTUCKY

CITY           SKY/WX    TMP DP  RH WIND       PRES   REMARKS
PADUCAH        CLEAR     65  63  93 SE3       30.02F
HENDERSON      CLEAR     70  63  78 S7        30.04S
OWENSBORO      CLEAR     69  66  90 SE6       30.07F
HOPKINSVILLE   NOT AVBL
BOWLING GREEN  CLEAR     66  63  90 E3        30.11S
GLASGOW        NOT AVBL
$$

KYZ024-025-028>034-038-045-046-053-291000-
NORTH CENTRAL KENTUCKY

CITY           SKY/WX    TMP DP  RH WIND       PRES   REMARKS
LOUISVILLE/SDF PTCLDY    68  63  84 E7        30.10F
LOUISVILLE/LOU CLEAR     66  63  90 CALM      30.12S
FORT KNOX      NOT AVBL
$$

KYZ035>037-039>044-047>052-055>060-089>105-291000-
NORTHEAST KENTUCKY

CITY           SKY/WX    TMP DP  RH WIND       PRES   REMARKS
LEXINGTON      CLEAR     65  64  97 SE6       30.15R
COVINGTON      CLOUDY    68  66  93 CALM      30.14R
FRANKFORT      CLEAR     65  63  93 CALM      30.13R
$$

KYZ054-064>069-076>088-106>120-291000-
SOUTHEAST KENTUCKY

CITY           SKY/WX    TMP DP  RH WIND       PRES   REMARKS
JACKSON        PTCLDY    67  63  87 SE3       30.17R
LONDON         FOG       64  61  90 CALM      30.16R VSB 1/2
SOMERSET       NOT AVBL
MIDDLESBORO    CLOUDY    65  65 100 CALM      30.18R
MONTICELLO     SUNNY     62  62 100 CALM      30.18R
$$




USA.gov is the U.S. government's official web portal to all federal, state and local government web resources and services.